Lakeville, MN

10:04 AM CDT on September 23, 2017 (GMT -0500)
Airlake

Weather History for KLVN - April, 2013

Change the Weather History Date:

Wednesday, April 10, 2013

  Actual Average Record
Temperature  
Mean Temperature 32 °F -  
Max Temperature 35 °F 54 °F 89 °F (1977)
Min Temperature 28 °F 32 °F 19 °F (1973)
Degree Days  
Heating Degree Days 34    
Moisture  
Dew Point 27 °F    
Average Humidity 81    
Maximum Humidity 100    
Minimum Humidity 60    
Precipitation  
Precipitation 0.00 in - - ()
Sea Level Pressure  
Sea Level Pressure 30.01 in    
Wind  
Wind Speed 14 mph (NE)    
Max Wind Speed 28 mph    
Max Gust Speed 38 mph    
Visibility 8 miles    
Events      
Averages and records for this station are not official NWS values.
T = Trace of Precipitation, MM = Missing Value Source: NWS Daily Summary

Daily Weather History Graph

Daily Weather History Graph

Search for Another Location

Airport or City:

Trip Planner

Search our weather history database for the weather conditions in past years. The results will help you decide how hot, cold, wet, or windy it might be!

Date:

Astronomy

Apr. 10, 2013 Rise Set
Actual Time 6:37 AM CDT 7:51 PM CDT
Civil Twilight 6:07 AM CDT 8:22 PM CDT
Nautical Twilight 5:30 AM CDT 8:58 PM CDT
Astronomical Twilight 4:52 AM CDT 9:36 PM CDT
Moon 6:32 AM CDT (4/10) 8:31 PM CDT (4/10)
Length of Visible Light 14h 15m
Length of Day
13h 14m
New Moon, 0% of the Moon is Illuminated
Apr 10
New Moon
Apr 18
First Quarter
Apr 25
Full
May 2
Last Quarter
May 9
New

Hourly Weather History & Observations

Time (CDT) Temp. Windchill Dew Point Humidity Pressure Visibility Wind Dir Wind Speed Gust Speed Precip Events Conditions
12:01 AM 30.2 °F 19.3 °F 28.4 °F 93% 30.12 in 2.5 mi NNE 15.0 mph 26.5 mph N/A   Overcast
12:21 AM 28.4 °F 18.5 °F 28.4 °F 100% 30.14 in 4.0 mi NNE 11.5 mph 25.3 mph N/A   Overcast
12:46 AM 28.4 °F 18.0 °F 28.4 °F 100% 30.16 in 1.5 mi NNE 12.7 mph 19.6 mph N/A   Overcast
1:01 AM 28.4 °F 15.8 °F 28.4 °F 100% 30.17 in 0.8 mi NNE 18.4 mph 26.5 mph N/A   Overcast
1:21 AM 28.4 °F 15.8 °F 28.4 °F 100% 30.17 in 1.0 mi NNE 18.4 mph 26.5 mph N/A   Overcast
1:45 AM 28.4 °F 13.3 °F 26.6 °F 93% 30.03 in 1.5 mi NE 27.6 mph 33.4 mph N/A   Overcast
2:01 AM 28.4 °F 15.4 °F 26.6 °F 93% 30.05 in 2.0 mi NE 19.6 mph 38.0 mph N/A   Overcast
2:21 AM - - - N/A% 30.06 in 7.0 mi NE 24.2 mph 29.9 mph N/A   Overcast
2:41 AM 28.4 °F 15.1 °F 26.6 °F 93% 30.02 in 10.0 mi NE 20.7 mph 25.3 mph N/A   Overcast
3:01 AM 28.4 °F 15.1 °F 26.6 °F 93% 30.05 in 10.0 mi NE 20.7 mph 28.8 mph N/A   Overcast
8:41 AM 30.2 °F 20.8 °F 23.0 °F 75% 30.07 in 10.0 mi NE 11.5 mph 17.3 mph N/A   Overcast
9:01 AM 32.0 °F 22.1 °F 23.0 °F 69% 30.04 in 10.0 mi NE 13.8 mph - N/A   Overcast
9:21 AM 32.0 °F 22.1 °F 23.0 °F 69% 30.04 in 10.0 mi NE 13.8 mph - N/A   Overcast
9:41 AM 32.0 °F 21.6 °F 21.2 °F 64% 30.04 in 10.0 mi NE 15.0 mph 21.9 mph N/A   Overcast
10:01 AM 32.0 °F 22.1 °F 21.2 °F 64% 30.05 in 10.0 mi ENE 13.8 mph 20.7 mph N/A   Overcast
10:21 AM 33.8 °F 23.5 °F 21.2 °F 60% 30.06 in 10.0 mi ENE 16.1 mph - N/A   Overcast
10:41 AM 33.8 °F 23.5 °F 21.2 °F 60% 30.06 in 10.0 mi ENE 16.1 mph 20.7 mph N/A   Overcast
11:01 AM 33.8 °F 25.3 °F 21.2 °F 60% 30.07 in 10.0 mi ENE 11.5 mph - N/A   Overcast
11:21 AM 33.8 °F 23.2 °F 21.2 °F 60% 30.04 in 10.0 mi ENE 17.3 mph - N/A   Overcast
11:41 AM 33.8 °F 23.9 °F 23.0 °F 65% 30.03 in 10.0 mi ENE 15.0 mph - N/A   Overcast
12:01 PM 33.8 °F 23.9 °F 24.8 °F 70% 30.01 in 10.0 mi ENE 15.0 mph - N/A   Overcast
12:21 PM 33.8 °F 23.2 °F 23.0 °F 65% 30.01 in 10.0 mi ENE 17.3 mph 20.7 mph N/A   Overcast
12:41 PM 33.8 °F 23.5 °F 23.0 °F 65% 30.02 in 10.0 mi ENE 16.1 mph - N/A   Overcast
1:01 PM 33.8 °F 24.8 °F 24.8 °F 70% 30.03 in 10.0 mi NE 12.7 mph - N/A   Overcast
1:21 PM 33.8 °F 25.3 °F 24.8 °F 70% 30.04 in 10.0 mi NE 11.5 mph - N/A   Overcast
1:41 PM 33.8 °F 25.3 °F 24.8 °F 70% 30.05 in 10.0 mi NE 11.5 mph - N/A   Overcast
2:01 PM 35.6 °F 29.2 °F 24.8 °F 65% 30.07 in 10.0 mi NNE 8.1 mph - N/A   Overcast
2:21 PM 33.8 °F 26.4 °F 26.6 °F 75% 30.06 in 5.0 mi NE 9.2 mph - N/A   Overcast
2:43 PM 33.8 °F 25.8 °F 28.4 °F 81% 30.06 in 5.0 mi NE 10.4 mph 18.4 mph N/A   Overcast
3:01 PM 32.0 °F 23.6 °F 28.4 °F 87% 30.06 in 7.0 mi NE 10.4 mph - N/A   Overcast
3:21 PM 33.8 °F 25.3 °F 28.4 °F 81% 30.05 in 7.0 mi NE 11.5 mph - N/A   Overcast
3:41 PM 33.8 °F 25.3 °F 28.4 °F 81% 30.04 in 5.0 mi NE 11.5 mph - N/A   Overcast
4:01 PM 32.0 °F 22.5 °F 28.4 °F 87% 30.03 in 4.0 mi NE 12.7 mph 19.6 mph N/A   Overcast
4:23 PM 32.0 °F 22.1 °F 30.2 °F 93% 30.02 in 3.0 mi NE 13.8 mph - N/A   Overcast
4:41 PM 32.0 °F 23.0 °F 30.2 °F 93% 30.01 in 3.0 mi NE 11.5 mph - N/A   Overcast
5:01 PM 32.0 °F 23.0 °F 30.2 °F 93% 30.00 in 3.0 mi ENE 11.5 mph - N/A   Overcast
5:21 PM 32.0 °F 21.6 °F 30.2 °F 93% 29.99 in 5.0 mi ENE 15.0 mph 24.2 mph N/A   Overcast
5:41 PM 32.0 °F 21.2 °F 30.2 °F 93% 29.98 in 7.0 mi ENE 16.1 mph 24.2 mph N/A   Overcast
6:01 PM 33.8 °F 23.5 °F 30.2 °F 87% 29.97 in 10.0 mi ENE 16.1 mph 21.9 mph N/A   Overcast
6:21 PM 33.8 °F 24.3 °F 30.2 °F 87% 29.98 in 10.0 mi ENE 13.8 mph 19.6 mph N/A   Overcast
6:41 PM 33.8 °F 25.3 °F 30.2 °F 87% 29.98 in 7.0 mi ENE 11.5 mph 17.3 mph N/A   Overcast
7:06 PM 32.0 °F 23.0 °F 30.2 °F 93% 29.97 in 7.0 mi East 11.5 mph - N/A   Overcast
7:25 PM 32.0 °F 23.0 °F 30.2 °F 93% 29.95 in 10.0 mi East 11.5 mph - N/A   Overcast
7:41 PM 32.0 °F 24.2 °F 30.2 °F 93% 29.93 in 10.0 mi ENE 9.2 mph - N/A   Overcast
8:01 PM 32.0 °F 23.6 °F 30.2 °F 93% 29.92 in 10.0 mi ENE 10.4 mph - N/A   Overcast
8:21 PM 32.0 °F 23.6 °F 30.2 °F 93% 29.90 in 10.0 mi ENE 10.4 mph - N/A   Overcast
8:41 PM 33.8 °F 25.8 °F 30.2 °F 87% 29.89 in 10.0 mi ENE 10.4 mph - N/A   Overcast
9:01 PM 33.8 °F 27.7 °F 28.4 °F 81% 29.90 in 10.0 mi East 6.9 mph - N/A   Overcast
9:21 PM 33.8 °F 26.4 °F 28.4 °F 81% 29.91 in 10.0 mi East 9.2 mph - N/A   Overcast
9:41 PM 33.8 °F 27.0 °F 28.4 °F 81% 29.93 in 10.0 mi East 8.1 mph - N/A   Overcast
10:01 PM 33.8 °F 27.7 °F 28.4 °F 81% 29.92 in 10.0 mi ENE 6.9 mph - N/A   Overcast
10:21 PM 33.8 °F 27.7 °F 28.4 °F 81% 29.93 in 10.0 mi East 6.9 mph - N/A   Overcast
10:41 PM 33.8 °F 28.6 °F 28.4 °F 81% 29.92 in 10.0 mi ENE 5.8 mph - N/A   Overcast
11:01 PM 33.8 °F 27.7 °F 28.4 °F 81% 29.91 in 10.0 mi NE 6.9 mph - N/A   Overcast
11:21 PM 33.8 °F 26.4 °F 26.6 °F 75% 29.90 in 10.0 mi NE 9.2 mph - N/A   Overcast
11:41 PM 33.8 °F 25.8 °F 26.6 °F 75% 29.88 in 10.0 mi NE 10.4 mph 16.1 mph N/A   Overcast